Buckeye, AZ

7:28 AM MST on September 21, 2019 (GMT -0700)
Buckeye Municipal

Weather History for KBXK - May, 2019

Change the Weather History Date:

Tuesday, May 28, 2019

  Actual Average (KGYR) Record (KGYR)
Temperature  
Mean Temperature 66 °F -  
Max Temperature 82 °F 98 °F 111 °F (2000)
Min Temperature 50 °F 68 °F 60 °F (2002)
Cooling Degree Days 1    
Growing Degree Days 16 (Base 50)    
Moisture  
Dew Point 29 °F    
Average Humidity 24    
Maximum Humidity 40    
Minimum Humidity 13    
Precipitation  
Precipitation 0.00 in - - ()
Sea Level Pressure  
Sea Level Pressure 29.82 in    
Wind  
Wind Speed 4 mph (SSE)    
Max Wind Speed 8 mph    
Max Gust Speed 16 mph    
Visibility 8 miles    
Events      
Averages and records for this station are not official NWS values.
T = Trace of Precipitation, MM = Missing Value Source: NWS Daily Summary

Daily Weather History Graph

Daily Weather History Graph

Search for Another Location

Airport or City:

Astronomy

May. 28, 2019 Rise Set
Actual Time 5:23 AM MST 7:32 PM MST
Civil Twilight 4:55 AM MST 8:01 PM MST
Nautical Twilight 4:20 AM MST 8:35 PM MST
Astronomical Twilight 3:43 AM MST 9:12 PM MST
Moon 2:15 AM MST (5/28) 2:07 PM MST (5/28)
Length of Visible Light 15h 06m
Length of Day
14h 09m
Waning Crescent, 30% of the Moon is Illuminated
May 28
Waning Crescent
Jun 3
New
Jun 9
First Quarter
Jun 17
Full
Jun 25
Last Quarter

Hourly Weather History & Observations

Time (MST) Temp. Dew Point Humidity Pressure Visibility Wind Dir Wind Speed Gust Speed Precip Events Conditions
12:15 AM 60.8 °F 24.8 °F 25% 29.87 in 10.0 mi Calm Calm - N/A   Clear
12:35 AM 59.0 °F 24.8 °F 27% 29.86 in 10.0 mi Calm Calm - N/A   Clear
12:55 AM 60.8 °F 26.6 °F 27% 29.86 in 10.0 mi NE 3.5 mph - N/A   Clear
1:15 AM 59.0 °F 24.8 °F 27% 29.85 in 10.0 mi NNE 4.6 mph - N/A   Clear
1:35 AM 57.2 °F 24.8 °F 29% 29.84 in 10.0 mi NNE 4.6 mph - N/A   Unknown
1:55 AM 57.2 °F 24.8 °F 29% 29.84 in 10.0 mi NNE 5.8 mph - N/A   Clear
2:15 AM 55.4 °F 23.0 °F 29% 29.84 in 10.0 mi North 6.9 mph - N/A   Clear
2:35 AM 55.4 °F 24.8 °F 31% 29.84 in 10.0 mi NNW 5.8 mph - N/A   Clear
2:55 AM 55.4 °F 26.6 °F 33% 29.84 in 6.0 mi NNW 5.8 mph - N/A   Clear
3:15 AM 55.4 °F 24.8 °F 31% 29.85 in 7.0 mi North 5.8 mph - N/A   Clear
3:35 AM 55.4 °F 24.8 °F 31% 29.85 in 10.0 mi North 5.8 mph - N/A   Clear
3:55 AM 55.4 °F 24.8 °F 31% 29.85 in 10.0 mi Calm Calm - N/A   Clear
4:15 AM 50.0 °F 26.6 °F 40% 29.86 in 10.0 mi WNW 3.5 mph - N/A   Clear
4:35 AM 50.0 °F 23.0 °F 35% 29.86 in 9.0 mi NNW 4.6 mph - N/A   Clear
4:55 AM 50.0 °F 24.8 °F 37% 29.86 in 8.0 mi NW 4.6 mph - N/A   Clear
5:15 AM 50.0 °F 24.8 °F 37% 29.86 in 5.0 mi North 6.9 mph - N/A   Unknown
5:35 AM 51.8 °F 24.8 °F 35% 29.87 in 5.0 mi North 6.9 mph - N/A   Clear
5:55 AM 53.6 °F 24.8 °F 33% 29.87 in 8.0 mi North 5.8 mph - N/A   Clear
6:15 AM 55.4 °F 24.8 °F 31% 29.87 in 6.0 mi North 3.5 mph - N/A   Clear
6:35 AM 59.0 °F 26.6 °F 29% 29.88 in 8.0 mi North 4.6 mph - N/A   Clear
6:55 AM 60.8 °F 26.6 °F 27% 29.88 in 5.0 mi NNE 3.5 mph - N/A   Clear
7:15 AM 64.4 °F 28.4 °F 26% 29.88 in 7.0 mi ENE 3.5 mph - N/A   Clear
7:35 AM 64.4 °F 32.0 °F 30% 29.88 in 8.0 mi SE 3.5 mph - N/A   Clear
7:55 AM 66.2 °F 39.2 °F 37% 29.88 in 5.0 mi SE 5.8 mph - N/A   Clear
8:15 AM 66.2 °F 41.0 °F 40% 29.88 in 5.0 mi SE 5.8 mph - N/A   Clear
8:35 AM 66.2 °F 37.4 °F 35% 29.89 in 8.0 mi SSE 5.8 mph - N/A   Clear
8:55 AM 68.0 °F 37.4 °F 33% 29.89 in 6.0 mi SSE 6.9 mph - N/A   Clear
9:15 AM 71.6 °F 33.8 °F 25% 29.88 in 6.0 mi South 5.8 mph - N/A   Clear
9:35 AM 71.6 °F 30.2 °F 22% 29.88 in 9.0 mi SSE 5.8 mph - N/A   Clear
9:55 AM 73.4 °F 32.0 °F 22% 29.88 in 8.0 mi SE 5.8 mph - N/A   Clear
10:15 AM 73.4 °F 32.0 °F 22% 29.88 in 10.0 mi SE 5.8 mph - N/A   Clear
10:35 AM 75.2 °F 32.0 °F 21% 29.88 in 9.0 mi SSE 5.8 mph - N/A   Clear
10:55 AM 77.0 °F 32.0 °F 19% 29.87 in 9.0 mi SE 4.6 mph - N/A   Clear
11:15 AM 77.0 °F 32.0 °F 19% 29.87 in 10.0 mi South 5.8 mph - N/A   Clear
11:35 AM 77.0 °F 32.0 °F 19% 29.87 in 9.0 mi SW 8.1 mph - N/A   Clear
11:55 AM 77.0 °F 30.2 °F 18% 29.86 in 10.0 mi SSW 4.6 mph - N/A   Clear
12:15 PM 77.0 °F 28.4 °F 17% 29.86 in 10.0 mi SE 4.6 mph - N/A   Clear
12:35 PM 78.8 °F 32.0 °F 18% 29.85 in 10.0 mi SSW 6.9 mph - N/A   Clear
12:55 PM 77.0 °F 28.4 °F 17% 29.84 in 10.0 mi SSW 3.5 mph - N/A   Clear
1:15 PM 78.8 °F 30.2 °F 17% 29.83 in 10.0 mi SSW 5.8 mph 16.1 mph N/A   Clear
1:35 PM 78.8 °F 28.4 °F 16% 29.82 in 10.0 mi SSE 6.9 mph - N/A   Clear
1:55 PM 80.6 °F 28.4 °F 15% 29.81 in 10.0 mi East 6.9 mph - N/A   Clear
2:15 PM 80.6 °F 28.4 °F 15% 29.81 in 10.0 mi Calm Calm - N/A   Clear
2:35 PM 80.6 °F 28.4 °F 15% 29.79 in 10.0 mi SE 3.5 mph - N/A   Clear
2:55 PM 82.4 °F 28.4 °F 14% 29.79 in 9.0 mi South 8.1 mph - N/A   Clear
3:15 PM 82.4 °F 28.4 °F 14% 29.78 in 10.0 mi SE 8.1 mph - N/A   Clear
3:35 PM 80.6 °F 26.6 °F 14% 29.77 in 10.0 mi SSE 5.8 mph - N/A   Clear
3:55 PM 82.4 °F 26.6 °F 13% 29.76 in 10.0 mi South 5.8 mph - N/A   Clear
4:15 PM 82.4 °F 26.6 °F 13% 29.76 in 10.0 mi SSW 6.9 mph - N/A   Clear
4:35 PM 82.4 °F 26.6 °F 13% 29.75 in 10.0 mi SE 8.1 mph - N/A   Clear
4:55 PM 82.4 °F 28.4 °F 14% 29.75 in 10.0 mi South 6.9 mph - N/A   Clear
5:15 PM 82.4 °F 26.6 °F 13% 29.74 in 10.0 mi SE 6.9 mph - N/A   Clear
5:35 PM 82.4 °F 28.4 °F 14% 29.74 in 10.0 mi SE 4.6 mph - N/A   Clear
5:55 PM 82.4 °F 28.4 °F 14% 29.74 in 10.0 mi SSE 5.8 mph - N/A   Clear
6:15 PM 82.4 °F 26.6 °F 13% 29.74 in 10.0 mi SSE 4.6 mph - N/A   Clear
6:35 PM 80.6 °F 26.6 °F 14% 29.74 in 10.0 mi SSE 4.6 mph - N/A   Clear
6:55 PM 80.6 °F 32.0 °F 17% 29.74 in 8.0 mi SSE 3.5 mph - N/A   Clear
7:15 PM 77.0 °F 35.6 °F 22% 29.74 in 7.0 mi SE 3.5 mph - N/A   Clear
7:35 PM 75.2 °F 37.4 °F 25% 29.74 in 6.0 mi SSE 4.6 mph - N/A   Clear
7:55 PM 73.4 °F 35.6 °F 25% 29.75 in 9.0 mi South 4.6 mph - N/A   Clear
8:15 PM 73.4 °F 37.4 °F 27% 29.76 in 4.0 mi South 3.5 mph - N/A   Clear
8:35 PM 71.6 °F 37.4 °F 29% 29.76 in 4.0 mi SSW 3.5 mph - N/A   Clear
8:55 PM 71.6 °F 35.6 °F 27% 29.77 in 3.0 mi SSW 3.5 mph - N/A   Clear
9:15 PM 71.6 °F 32.0 °F 23% 29.77 in 5.0 mi SSW 3.5 mph - N/A   Unknown
9:35 PM 71.6 °F 32.0 °F 23% 29.78 in 5.0 mi Calm Calm - N/A   Clear
9:55 PM 69.8 °F 28.4 °F 21% 29.78 in 8.0 mi Calm Calm - N/A   Clear
10:15 PM 66.2 °F 28.4 °F 24% 29.79 in 8.0 mi WNW 3.5 mph - N/A   Clear
10:35 PM 68.0 °F 28.4 °F 23% 29.79 in 8.0 mi WNW 4.6 mph - N/A   Unknown
10:55 PM 66.2 °F 26.6 °F 23% 29.79 in 6.0 mi WNW 5.8 mph - N/A   Clear
11:15 PM 68.0 °F 26.6 °F 21% 29.79 in 9.0 mi NNW 5.8 mph - N/A   Clear
11:35 PM 64.4 °F 24.8 °F 22% 29.79 in 9.0 mi NNW 6.9 mph - N/A   Unknown
11:55 PM 64.4 °F 24.8 °F 22% 29.79 in 10.0 mi NNW 6.9 mph - N/A   Clear